SCQ6J ENZV-ENBR

Flight info

Callsign SCQ6J
Flight time 0h 49m
Altitude 8000
Route ALUVA
Aircraft DA42/L-SBDGRY/S

Departure

Time 2026-03-29 08:17
Airport Stavanger Airport, Sola (ENZV)

Arrival

Time 2026-03-29 09:07
Airport Bergen Airport, Flesland (ENBR)
Time Latitude Longitude Altitude Speed Heading
2026-03-29 08:04 58.89258 5.63281 19 ft 0 kts 255°
2026-03-29 08:11 58.89258 5.63280 19 ft 1 kts 258°
2026-03-29 08:12 58.89292 5.63274 19 ft 0 kts
2026-03-29 08:12 58.89314 5.63280 18 ft 0 kts
2026-03-29 08:14 58.89331 5.63301 17 ft 8 kts 40°
2026-03-29 08:14 58.89343 5.63505 14 ft 16 kts 87°
2026-03-29 08:14 58.89343 5.63528 13 ft 0 kts 94°
2026-03-29 08:15 58.89343 5.63530 13 ft 2 kts 94°
2026-03-29 08:15 58.89345 5.63634 13 ft 13 kts 98°
2026-03-29 08:16 58.89281 5.63737 14 ft 0 kts 173°
2026-03-29 08:16 58.89278 5.63738 14 ft 9 kts 174°
2026-03-29 08:17 58.88972 5.63748 19 ft 73 kts 181°
2026-03-29 08:17 58.88354 5.63820 116 ft 96 kts 178°
2026-03-29 08:17 58.87731 5.63942 600 ft 82 kts 179°
2026-03-29 08:17 58.87167 5.63965 1088 ft 79 kts 187°
2026-03-29 08:18 58.86586 5.63953 1496 ft 85 kts 185°
2026-03-29 08:18 58.85992 5.63906 1900 ft 88 kts 186°
2026-03-29 08:18 58.85385 5.63866 2333 ft 86 kts 189°
2026-03-29 08:18 58.84794 5.63845 2770 ft 86 kts 186°
2026-03-29 08:19 58.84196 5.63867 3178 ft 86 kts 189°
2026-03-29 08:19 58.83594 5.63890 3604 ft 87 kts 189°
2026-03-29 08:19 58.82998 5.63911 4014 ft 86 kts 189°
2026-03-29 08:19 58.82392 5.63929 4343 ft 88 kts 188°
2026-03-29 08:20 58.81775 5.63952 4679 ft 89 kts 188°
2026-03-29 08:20 58.81199 5.63716 5014 ft 82 kts 224°
2026-03-29 08:20 58.80871 5.62840 5360 ft 82 kts 250°
2026-03-29 08:20 58.80804 5.61754 5718 ft 84 kts 275°
2026-03-29 08:21 58.81045 5.60702 6083 ft 90 kts 304°
2026-03-29 08:21 58.81568 5.59996 6432 ft 96 kts 324°
2026-03-29 08:21 58.82157 5.59382 6768 ft 96 kts 324°
2026-03-29 08:21 58.82746 5.58763 7106 ft 97 kts 323°
2026-03-29 08:22 58.83337 5.58138 7463 ft 97 kts 323°
2026-03-29 08:22 58.83927 5.57511 7851 ft 97 kts 323°
2026-03-29 08:22 58.84559 5.56833 8001 ft 115 kts 324°
2026-03-29 08:22 58.85320 5.56019 8008 ft 134 kts 324°
2026-03-29 08:23 58.86171 5.55101 8009 ft 146 kts 324°
2026-03-29 08:23 58.87077 5.54121 8009 ft 152 kts 324°
2026-03-29 08:23 58.88013 5.53108 8009 ft 156 kts 325°
2026-03-29 08:23 58.88965 5.52079 8008 ft 158 kts 325°
2026-03-29 08:24 58.89914 5.51054 8009 ft 159 kts 325°
2026-03-29 08:24 58.90882 5.50009 8008 ft 160 kts 325°
2026-03-29 08:24 58.91853 5.48958 8008 ft 160 kts 325°
2026-03-29 08:24 58.92828 5.47903 8010 ft 161 kts 325°
2026-03-29 08:25 58.93804 5.46844 8010 ft 161 kts 325°
2026-03-29 08:25 58.94778 5.45787 8006 ft 161 kts 325°
2026-03-29 08:25 58.95755 5.44727 8007 ft 161 kts 325°
2026-03-29 08:25 58.96729 5.43669 8007 ft 161 kts 325°
2026-03-29 08:26 58.97704 5.42608 8003 ft 161 kts 325°
2026-03-29 08:26 58.98670 5.41557 8004 ft 161 kts 325°
2026-03-29 08:26 58.99645 5.40496 8001 ft 161 kts 325°
2026-03-29 08:26 59.00621 5.39431 8000 ft 161 kts 325°
2026-03-29 08:27 59.01598 5.38367 7998 ft 161 kts 324°
2026-03-29 08:27 59.02576 5.37300 7996 ft 161 kts 324°
2026-03-29 08:27 59.03554 5.36232 7993 ft 162 kts 324°
2026-03-29 08:27 59.04532 5.35163 7992 ft 162 kts 324°
2026-03-29 08:28 59.05514 5.34090 7991 ft 162 kts 324°
2026-03-29 08:28 59.06495 5.33017 7989 ft 162 kts 324°
2026-03-29 08:28 59.07478 5.31940 7985 ft 163 kts 324°
2026-03-29 08:28 59.08453 5.30873 7983 ft 163 kts 324°
2026-03-29 08:29 59.09439 5.29793 7963 ft 163 kts 324°
2026-03-29 08:29 59.10424 5.28713 7962 ft 162 kts 324°
2026-03-29 08:29 59.11409 5.27633 7964 ft 162 kts 324°
2026-03-29 08:29 59.12391 5.26553 7962 ft 162 kts 324°
2026-03-29 08:30 59.13373 5.25474 7987 ft 161 kts 324°
2026-03-29 08:30 59.14349 5.24402 7992 ft 161 kts 324°
2026-03-29 08:30 59.15330 5.23322 7994 ft 162 kts 324°
2026-03-29 08:30 59.16315 5.22237 7996 ft 163 kts 324°
2026-03-29 08:31 59.17309 5.21140 7995 ft 164 kts 324°
2026-03-29 08:31 59.18296 5.20053 7994 ft 165 kts 324°
2026-03-29 08:31 59.19292 5.18955 7995 ft 164 kts 324°
2026-03-29 08:31 59.20288 5.17854 7998 ft 165 kts 324°
2026-03-29 08:32 59.21287 5.16750 7997 ft 165 kts 324°
2026-03-29 08:32 59.22282 5.15650 7996 ft 164 kts 324°
2026-03-29 08:32 59.23279 5.14548 7995 ft 164 kts 324°
2026-03-29 08:32 59.24272 5.13449 7998 ft 164 kts 324°
2026-03-29 08:33 59.25268 5.12346 7997 ft 164 kts 324°
2026-03-29 08:33 59.26260 5.11245 8000 ft 164 kts 324°
2026-03-29 08:33 59.27254 5.10143 8002 ft 164 kts 324°
2026-03-29 08:33 59.28246 5.09042 8002 ft 164 kts 324°
2026-03-29 08:34 59.29238 5.07940 8003 ft 164 kts 324°
2026-03-29 08:34 59.30232 5.06835 8003 ft 164 kts 324°
2026-03-29 08:34 59.31224 5.05731 8003 ft 164 kts 324°
2026-03-29 08:34 59.32206 5.04638 8002 ft 164 kts 324°
2026-03-29 08:35 59.33199 5.03532 8006 ft 164 kts 324°
2026-03-29 08:35 59.34194 5.02423 8004 ft 165 kts 324°
2026-03-29 08:35 59.35192 5.01310 8002 ft 165 kts 324°
2026-03-29 08:35 59.36188 5.00198 8005 ft 165 kts 324°
2026-03-29 08:36 59.37188 4.99081 8002 ft 165 kts 324°
2026-03-29 08:36 59.38187 4.97965 8003 ft 165 kts 324°
2026-03-29 08:36 59.39238 4.97012 8001 ft 170 kts 339°
2026-03-29 08:36 59.40429 4.96731 8001 ft 174 kts 350°
2026-03-29 08:37 59.41638 4.96532 7999 ft 174 kts 350°
2026-03-29 08:37 59.42848 4.96335 8000 ft 174 kts 350°
2026-03-29 08:37 59.44054 4.96141 7999 ft 174 kts 350°
2026-03-29 08:37 59.45263 4.95946 7998 ft 174 kts 350°
2026-03-29 08:38 59.46451 4.95753 7995 ft 174 kts 350°
2026-03-29 08:38 59.47655 4.95557 7996 ft 173 kts 350°
2026-03-29 08:38 59.48857 4.95361 7996 ft 173 kts 350°
2026-03-29 08:38 59.50059 4.95164 7994 ft 173 kts 350°
2026-03-29 08:39 59.51222 4.94976 7994 ft 174 kts 350°
2026-03-29 08:39 59.52426 4.94778 7994 ft 174 kts 350°
2026-03-29 08:39 59.53632 4.94581 7990 ft 174 kts 350°
2026-03-29 08:39 59.54839 4.94383 7987 ft 174 kts 350°
2026-03-29 08:40 59.56048 4.94185 7988 ft 174 kts 350°
2026-03-29 08:40 59.57255 4.93987 7986 ft 174 kts 350°
2026-03-29 08:40 59.58467 4.93789 7983 ft 175 kts 350°
2026-03-29 08:40 59.59681 4.93590 7983 ft 175 kts 350°
2026-03-29 08:41 59.60883 4.93392 7980 ft 175 kts 350°
2026-03-29 08:41 59.62093 4.93194 7978 ft 175 kts 350°
2026-03-29 08:41 59.62894 4.93062 7980 ft 175 kts 350°
2026-03-29 08:41 59.64107 4.92862 7978 ft 175 kts 350°
2026-03-29 08:42 59.65324 4.92662 7973 ft 176 kts 350°
2026-03-29 08:42 59.66543 4.92461 7972 ft 176 kts 350°
2026-03-29 08:42 59.67763 4.92260 7971 ft 175 kts 350°
2026-03-29 08:42 59.68977 4.92060 7969 ft 175 kts 350°
2026-03-29 08:43 59.70192 4.91859 7968 ft 175 kts 350°
2026-03-29 08:43 59.71410 4.91658 7968 ft 175 kts 350°
2026-03-29 08:43 59.72628 4.91457 7966 ft 176 kts 350°
2026-03-29 08:43 59.73831 4.91258 7966 ft 176 kts 350°
2026-03-29 08:44 59.75052 4.91056 7960 ft 176 kts 350°
2026-03-29 08:44 59.76272 4.90853 7962 ft 176 kts 350°
2026-03-29 08:44 59.77491 4.90651 7962 ft 176 kts 350°
2026-03-29 08:44 59.78701 4.90340 7961 ft 175 kts 346°
2026-03-29 08:45 59.79910 4.90005 7960 ft 176 kts 347°
2026-03-29 08:45 59.81124 4.89678 7961 ft 176 kts 347°
2026-03-29 08:45 59.82335 4.89339 7959 ft 176 kts 347°
2026-03-29 08:45 59.83551 4.88994 7959 ft 176 kts 347°
2026-03-29 08:46 59.84763 4.88649 7956 ft 176 kts 347°
2026-03-29 08:46 59.85978 4.88304 7959 ft 176 kts 347°
2026-03-29 08:46 59.87180 4.87961 7958 ft 177 kts 347°
2026-03-29 08:46 59.88395 4.87616 7955 ft 176 kts 347°
2026-03-29 08:47 59.89612 4.87269 7956 ft 177 kts 347°
2026-03-29 08:47 59.90832 4.86922 7949 ft 177 kts 347°
2026-03-29 08:47 59.92048 4.86575 7951 ft 177 kts 347°
2026-03-29 08:47 59.93265 4.86227 7953 ft 177 kts 347°
2026-03-29 08:48 59.94485 4.85878 7947 ft 177 kts 347°
2026-03-29 08:48 59.95703 4.85530 7949 ft 177 kts 347°
2026-03-29 08:48 59.96923 4.85181 7948 ft 177 kts 347°
2026-03-29 08:48 59.98143 4.84832 7946 ft 177 kts 347°
2026-03-29 08:49 59.99358 4.84488 7880 ft 176 kts 347°
2026-03-29 08:49 60.00574 4.84139 7776 ft 177 kts 347°
2026-03-29 08:49 60.01799 4.83786 7667 ft 178 kts 347°
2026-03-29 08:49 60.03004 4.83440 7580 ft 176 kts 347°
2026-03-29 08:50 60.04217 4.83091 7484 ft 176 kts 347°
2026-03-29 08:50 60.05435 4.82740 7373 ft 177 kts 347°
2026-03-29 08:50 60.06659 4.82388 7256 ft 178 kts 347°
2026-03-29 08:50 60.07891 4.82033 7136 ft 179 kts 347°
2026-03-29 08:51 60.09124 4.81678 7017 ft 179 kts 347°
2026-03-29 08:51 60.10358 4.81322 6893 ft 179 kts 347°
2026-03-29 08:51 60.11592 4.80966 6778 ft 179 kts 348°
2026-03-29 08:51 60.12826 4.80609 6656 ft 179 kts 348°
2026-03-29 08:52 60.14077 4.80520 6524 ft 184 kts 10°
2026-03-29 08:52 60.15292 4.81324 6405 ft 184 kts 20°
2026-03-29 08:52 60.16498 4.82187 6281 ft 184 kts 17°
2026-03-29 08:52 60.17721 4.82955 6152 ft 184 kts 16°
2026-03-29 08:53 60.18945 4.83691 6022 ft 183 kts 16°
2026-03-29 08:53 60.20167 4.84427 5890 ft 184 kts 16°
2026-03-29 08:53 60.21392 4.85168 5761 ft 184 kts 16°
2026-03-29 08:53 60.22614 4.85909 5630 ft 183 kts 16°
2026-03-29 08:54 60.23835 4.86649 5496 ft 183 kts 16°
2026-03-29 08:54 60.25053 4.87388 5372 ft 183 kts 16°
2026-03-29 08:54 60.26270 4.88127 5247 ft 182 kts 16°
2026-03-29 08:54 60.27484 4.88865 5120 ft 182 kts 16°
2026-03-29 08:55 60.28700 4.89604 4996 ft 182 kts 16°
2026-03-29 08:55 60.29913 4.90342 4869 ft 182 kts 17°
2026-03-29 08:55 60.31125 4.91080 4744 ft 182 kts 17°
2026-03-29 08:55 60.32334 4.91817 4618 ft 182 kts 17°
2026-03-29 08:56 60.33528 4.92545 4493 ft 181 kts 17°
2026-03-29 08:56 60.34734 4.93279 4378 ft 181 kts 17°
2026-03-29 08:56 60.35942 4.94019 4267 ft 181 kts 17°
2026-03-29 08:56 60.37145 4.94762 4148 ft 180 kts 17°
2026-03-29 08:57 60.38347 4.95504 4026 ft 180 kts 17°
2026-03-29 08:57 60.39537 4.96224 3989 ft 175 kts 17°
2026-03-29 08:57 60.40690 4.96924 3990 ft 172 kts 17°
2026-03-29 08:57 60.41832 4.97621 3985 ft 170 kts 17°
2026-03-29 08:58 60.42961 4.98313 3982 ft 169 kts 17°
2026-03-29 08:58 60.44082 4.99002 3979 ft 168 kts 18°
2026-03-29 08:58 60.45199 4.99665 3980 ft 167 kts 16°
2026-03-29 08:58 60.46310 5.00336 3977 ft 166 kts 17°
2026-03-29 08:59 60.47337 5.01346 3979 ft 164 kts 42°
2026-03-29 08:59 60.48027 5.03104 3980 ft 157 kts 71°
2026-03-29 08:59 60.48278 5.05192 3919 ft 152 kts 97°
2026-03-29 08:59 60.48134 5.07321 3718 ft 156 kts 109°
2026-03-29 09:00 60.47937 5.09513 3500 ft 159 kts 109°
2026-03-29 09:00 60.47738 5.11704 3293 ft 157 kts 109°
2026-03-29 09:00 60.47353 5.13669 3095 ft 145 kts 129°
2026-03-29 09:00 60.46715 5.15139 2920 ft 136 kts 147°
2026-03-29 09:01 60.45939 5.16057 2822 ft 125 kts 167°
2026-03-29 09:01 60.45107 5.16427 2728 ft 121 kts 172°
2026-03-29 09:01 60.44285 5.16746 2644 ft 120 kts 173°
2026-03-29 09:01 60.43483 5.17045 2541 ft 109 kts 173°
2026-03-29 09:02 60.42793 5.17279 2474 ft 95 kts 174°
2026-03-29 09:02 60.42152 5.17498 2380 ft 92 kts 174°
2026-03-29 09:02 60.41561 5.17697 2374 ft 82 kts 174°
2026-03-29 09:02 60.41009 5.17882 2376 ft 80 kts 174°
2026-03-29 09:03 60.40438 5.18072 2386 ft 86 kts 175°
2026-03-29 09:03 60.39840 5.18272 2354 ft 91 kts 173°
2026-03-29 09:03 60.39194 5.18550 2183 ft 97 kts 172°
2026-03-29 09:03 60.38527 5.18858 1971 ft 101 kts 172°
2026-03-29 09:04 60.37827 5.19133 1760 ft 103 kts 174°
2026-03-29 09:04 60.37167 5.19347 1642 ft 89 kts 174°
2026-03-29 09:04 60.36569 5.19567 1494 ft 86 kts 173°
2026-03-29 09:04 60.35986 5.19718 1372 ft 83 kts 176°
2026-03-29 09:05 60.35408 5.19869 1232 ft 84 kts 176°
2026-03-29 09:05 60.34828 5.20031 1069 ft 83 kts 174°
2026-03-29 09:05 60.34265 5.20214 976 ft 81 kts 174°
2026-03-29 09:05 60.33709 5.20374 892 ft 81 kts 173°
2026-03-29 09:06 60.33157 5.20548 809 ft 81 kts 170°
2026-03-29 09:06 60.32590 5.20759 694 ft 85 kts 171°
2026-03-29 09:06 60.32008 5.20949 553 ft 84 kts 168°
2026-03-29 09:06 60.31428 5.21132 398 ft 84 kts 168°
2026-03-29 09:07 60.30862 5.21315 293 ft 83 kts 168°
2026-03-29 09:07 60.30302 5.21503 179 ft 74 kts 169°
2026-03-29 09:07 60.29950 5.21619 167 ft 33 kts 171°
2026-03-29 09:07 60.29752 5.21685 165 ft 22 kts 152°
2026-03-29 09:08 60.29718 5.21889 163 ft 12 kts 83°
2026-03-29 09:08 60.29719 5.21900 163 ft 0 kts 82°
2026-03-29 09:08 60.29720 5.21938 163 ft 13 kts 85°
2026-03-29 09:09 60.29741 5.22201 163 ft 22 kts 76°
2026-03-29 09:09 60.29695 5.22382 163 ft 15 kts 171°
2026-03-29 09:09 60.29602 5.22414 162 ft 12 kts 169°
2026-03-29 09:09 60.29534 5.22423 161 ft 8 kts 177°
2026-03-29 09:10 60.29539 5.22436 161 ft 0 kts 334°